Tracking 25710 objects as of 7-Jul-2022
HD Live streaming from Space Station
objects crossing your sky now

FENGYUN 1C DEB

Track FENGYUN 1C DEB now!
10-day predictions


NORAD ID: 46994
Int'l Code: 1999-025EZU
Perigee: 527.8 km
Apogee: 870.8 km
Inclination: 98.4 °
Period: 98.6 minutes
Semi major axis: 7070 km
RCS: Unknown
Launch date: May 10, 1999
Source: People's Republic of China (PRC)
Launch site: Taiyaun Space Center, China (TSC)

Note: This is SATELLITE DEBRIS
aabbcc
Your satellite tracking list
Your tracking list is empty




NASA's NSSDC Master Catalog

Two Line Element Set (TLE):
1 46994U 99025EZU 22180.54205807  .00002923  00000-0  40705-3 0  9996
2 46994  98.3588 281.3478 0242588  75.2679 299.7162 14.60313294475648
Source of the keplerian elements: AFSPC